Regional Weather Roundup
Issued by NWS Grand Forks, ND

Home | Current Version | Previous Version | Text Only | Print | Product List | Glossary Off
Versions: 1 2 3 4 5 6 7 8 9 10 11 12 13 14 15 16 17 18 19 20 21 22 23 24 25 26 27 28 29 30 31 32 33 34 35 36 37 38 39 40 41 42 43 44 45 46 47 48 49 50

000
ASUS43 KFGF 060310
RWRFGF
PRAIRIE TO PINES  WEATHER ROUNDUP
NATIONAL WEATHER SERVICE EASTERN NORTH DAKOTA/GRAND FORKS ND
900 PM CST THU MAR 05 2015

 **SATELLITE DATA USED TO AUGMENT SKY COVER AT AUTOMATED STATIONS**
 *****  WEATHER ACROSS EASTERN NORTH DAKOTA  *****

CITY           SKY/WX    TMP DP  RH WIND       PRES   REMARKS
GRAND FORKS    PTCLDY    17   9  70 S15       30.04F WCI   2
GRAND FRKS AFB CLOUDY    20  10  65 SW15      30.02F WCI   6
GRAND FRKS NWS   N/A     16 N/A N/A S20         N/A  WCI  -1
DEVILS LAKE    PTCLDY    19  10  68 SW13      29.97F WCI   7
FARGO          CLEAR     17   7  64 S16       30.12F WCI   2
WAHPETON ARPT  CLEAR     14   7  73 SE14      30.15F WCI  -1
$$

 ***** WEATHER ACROSS CENTRAL AND WESTERN NORTH DAKOTA  *****

CITY           SKY/WX    TMP DP  RH WIND       PRES   REMARKS
BISMARCK       CLEAR     25  13  60 SW3       30.06S
MINOT          PTCLDY    27  13  55 SW17      29.96S WCI  14
JAMESTOWN      CLEAR     18  10  71 S13       30.04F WCI   5
MINOT AFB      PTCLDY    24  16  73 W14       29.95F WCI  11
GARRISON         N/A     24  13  62 W9        30.00F WCI  14
WILLISTON      CLOUDY    34  21  59 W8        30.02S
DICKINSON      PTCLDY    23  11  60 W7        30.02F WCI  15
HETTINGER      CLEAR     23   9  55 W6        30.08S WCI  16
$$

 *****  OTHER AIRPORT OBSERVATIONS IN OUR AREA  *****

CITY           SKY/WX    TMP DP  RH WIND       PRES   REMARKS
WALHALLA         N/A     27  16  63 SW17G33   29.90F WCI  14
GRAFTON AIRPOR NOT AVBL
VALLEY CITY AR FAIR      16  12  86 S15       30.06F WCI   1
CANDO          CLOUDY    18  12  79 W14       29.94F WCI   4
CAVALIER APRT  FAIR      25  14  63 S13       29.93F WCI  13
GWINNER        CLEAR     16   9  73 SW12      30.11F WCI   3
SHEYENNE NWR     N/A     15   7  72 S7        29.95  WCI   5
ROLLA          FAIR      19  12  73 W18       29.90F WCI   4
 ***** THE ABOVE OBSERVATIONS ARE NON NWS ARE NOT QUALITY
       CONTROLLED AND MAY MIS-REPORT RAIN FOR SNOW...
$$

  *****  WEATHER ACROSS NORTHERN MINNESOTA  *****

CITY           SKY/WX    TMP DP  RH WIND       PRES   REMARKS
FLAG ISLAND    MOCLDY    12   5  73 S16       29.96F WCI  -4
WARROAD        PTCLDY    14   7  73 S15G23    29.99F WCI  -1
ROSEAU         PTCLDY    14   7  73 S23G29    29.99F WCI  -5
HALLOCK        NOT AVBL
THF RVR FALLS  CLEAR     14   7  73 S16       30.06F WCI  -2
BAUDETTE       CLEAR     13   0  56 S16       30.01F WCI  -3
WASKISH        FAIR      12   0  57 S8        30.08F WCI   1
CROOKSTON      CLEAR     16   9  73 S21       30.09F WCI  -2
STEPHEN NDAWN    N/A     18  10  73 S21         N/A  WCI   1
GREENBUSH NDAW   N/A     18   9  68 S25         N/A  WCI  -1
$$
  *****  WEATHER ACROSS CENTRAL AND WEST MINNESOTA  *****

CITY           SKY/WX    TMP DP  RH WIND       PRES   REMARKS
FOSSTON        CLEAR     10   3  72 S20       30.09F WCI  -8
BEMIDJI        CLEAR     10   0  63 S9        30.10F WCI  -3
PARK RAPIDS    CLEAR      9  -2  61 S8        30.14F WCI  -3
ELBOW LAKE     FAIR      13   6  72 S17       30.16F WCI  -3
WADENA         PTCLDY     7   0  72 S8        30.16F WCI  -6
DETROIT LAKES  PTCLDY    12   5  73 S10       30.13F WCI  -1
MOORHEAD       CLEAR     16  10  79 S16       30.14F WCI   0
FERGUS FALLS   CLEAR     12   3  67 S15       30.20F WCI  -4
MORRIS MN      CLEAR     10   5  79 SE12      30.19F WCI  -4
STAPLES        PTCLDY     7   0  72 S9        30.19F WCI  -7
$$
  *****  WEATHER ELSEWHERE ACROSS MINNESOTA  *****

CITY           SKY/WX    TMP DP  RH WIND       PRES   REMARKS
DULUTH         CLEAR      7  -6  55 SW13      30.21F WCI  -9
INTRNTL FALLS  CLEAR     12  -4  48 SW14G24   30.07F WCI  -3
ELY            CLEAR      7  -8  51 SW12G18   30.15F WCI  -9
CLOQUET        CLEAR      7  -6  56 SW10      30.23F WCI  -8
WHEATON        CLEAR     12   7  79 SE17      30.18F WCI  -5
BRAINERD       CLEAR      6  -2  69 S9        30.21F WCI  -8
HIBBING        CLEAR      5  -7  57 S5        30.17F WCI  -4
ALEXANDRIA     PTCLDY    12   3  67 S14       30.18F WCI  -3
SAINT CLOUD    PTCLDY     5  -2  72 SE9       30.28F WCI  -9
MINNEAPOLIS    PTCLDY    11   1  64 S10       30.36F WCI  -3
$$

  *****  WEATHER ACROSS SOUTH DAKOTA  *****

CITY           SKY/WX    TMP DP  RH WIND       PRES   REMARKS
SIOUX FALLS    CLEAR     24   7  48 S14       30.21F WCI  12
BROOKINGS      NOT AVBL
WATERTOWN      CLEAR     15   6  67 S9        30.13F WCI   3
HURON          CLEAR     25   7  46 S9        30.14F WCI  15
SISSETON       NOT AVBL
ABERDEEN       CLEAR     12   6  77 S6        30.12F WCI   3
MITCHELL       CLEAR     25   7  46 SE10      30.17F WCI  15
PIERRE         CLEAR     20  15  81 SW5       30.11R WCI  13
MOBRIDGE       CLEAR     24  14  65 SE8       30.06F WCI  15
RAPID CITY     CLEAR     32  15  49 W5        30.14R
$$

  *****  SOME WEATHER IN NEARBY STATES *****

CITY           SKY/WX    TMP DP  RH WIND       PRES   REMARKS
GLASGOW MT     PTCLDY    37  18  46 NW3       30.05R
GREAT FALLS MT PTCLDY    37  14  38 W12       30.11R
CHEYENNE WY    PTCLDY    32  14  47 W10       30.22S WCI  24
SCOTTSBLUFF NE CLEAR     29  18  63 NW7       30.22S WCI  22
OMAHA NE       CLEAR     25   6  44 SE14      30.38F WCI  13
DES MOINES IA  CLEAR     18   2  49 SE6       30.46F WCI  10
DAVENPORT IA   PTCLDY     4  -5  66 S3        30.54F
CHICAGO IL     PTCLDY     9  -3  58 SW5       30.53S WCI   1
EAU CLAIRE WI  MOCLDY     3  -7  63 S7        30.40S WCI  -9
LA CROSSE WI   PTCLDY     6  -4  63 S5        30.47F WCI  -3
$$

  *****  SOME NATIONAL WEATHER *****

CITY           SKY/WX    TMP DP  RH WIND       PRES   REMARKS
LA GUARDIA NY  CLOUDY    23   7  50 N16       30.33R WCI  10
RALEIGH NC     CLOUDY    32  27  81 NE9       30.32R WCI  24
ATLANTA GA     CLOUDY    32  25  75 NW15      30.29R WCI  22
NEW ORLEANS LA PTCLDY    37  24  59 N21G31    30.44R
OKLAHOMA CITY  CLEAR     27  14  58 S8        30.51R WCI  19
ALBUQUERQUE NM CLEAR     46  11  24 N8        30.36R
SALT LAKE CITY PTCLDY    41  21  44 E5        30.41S
LOS ANGELES CA CLEAR     63  35  35 W13       30.17F
BOISE ID       PTCLDY    47  20  34 CALM      30.34R
SEATTLE WA     CLOUDY    50  32  50 CALM      30.38R
$$

*** WEATHER ACROSS MANITOBA...SASKATCHEWAN AND ONTARIO ***
                ***ONTARIO***

CITY           SKY/WX    TMP DP  RH WIND       PRES   REMARKS
GERALDTON      MOCLDY     3  -9  55 SW10      30.06F WCI -12
THUNDER BAY    PTCLDY     3  -2  78 W5        30.19F WCI  -6
SIOUX LOOKOUT  MOCLDY    10  -6  48 SW10G17   29.96F WCI  -3
TORONTO        CLEAR      7  -4  61 W7        30.48R WCI  -5
BIG TROUT LK   CLOUDY     5  -6  61 SW8       29.72F WCI  -8
PICKLE LAKE    NOT AVBL
DRYDEN         MOCLDY     9  -4  56 SW15G21   29.95F WCI  -8
KENORA         NOT AVBL
$$
                *** MANITOBA***

CITY           SKY/WX    TMP DP  RH WIND       PRES   REMARKS
BRANDON        PTCLDY    14   9  79 W12       29.89S WCI   0
DAUPHIN        CLEAR     18  10  73 W18       29.88  WCI   2
ISLAND LAKE    FLURRIES  12  -2  52 W13       29.72R WCI  -3
PILOT MOUND      N/A     14   9  79 SW8         N/A  WCI   3
THE PAS        CLEAR     14   5  67 W7        29.81R WCI   4
THOMPSON         N/A      7  -4  61 W8        29.68S WCI  -6
WINNIPEG       MOCLDY    21  12  68 S18G26    29.89F WCI   6
LYNN LAKE      CLEAR     10   5  79 NW6       29.70R WCI   1
CHURCHILL      LGT SNOW   0  -4  85 NW21      29.59S BLWGSNOWWCI -23
GILLAM         FLURRIES   7   0  72 W12       29.61F WCI  -9
$$
                ***SASKATCHEWAN***

CITY           SKY/WX    TMP DP  RH WIND       PRES   REMARKS
ESTEVAN        CLEAR     25  18  74 W15       29.97S WCI  12
KINDERSLEY     MOCLDY    19  16  86 S3        30.01R
LLOYDMINSTER   MOCLDY    23  18  80 SW7       29.93F WCI  15
PRINCE ALBERT  PTCLDY    23  12  63 W7        29.93R WCI  15
REGINA         CLEAR     14  12  92 NW12      29.99R WCI   0
YORKTON        CLEAR     16   9  73 W13       29.91R WCI   2
N. BATTLEFORD  CLEAR     21  16  79 S3        29.99S
LA RONGE       MOCLDY    21  12  68 W5        29.85S WCI  15
SASKATOON      CLEAR     14  10  85 W9        30.00S WCI   2
SWIFT CURRENT  PTCLDY    27  19  74 W8        30.02R WCI  18
$$
NOTE: THESE ARE AUTOMATED STATIONS WITH LIMITED QUALITY CONTROL
      "FAIR" INDICATES FEW OR NO CLOUDS BELOW 12,000 FEET WITH NO
      SIGNIFICANT WEATHER AND/OR OBSTRUCTIONS TO VISIBILITY.
      SKY/WX - SKY CONDITION AND SIGNIFICANT WEATHER.
      TMP - AIR TEMPERATURE.    DP   - DEWPOINT TEMPERATURE.
      RH  - RELATIVE HUMIDITY.  PRES - PRESSURE.
      HX  - HEAT INDEX.         WCI  - WIND CHILL INDEX.
$


USA.gov is the U.S. government's official web portal to all federal, state and local government web resources and services.